ARIANE 5 R/B (44036 NORAD) Tracking and Keplerian Element Data

This shows tracking and keplerian element data for the satellite.

Feedback or suggestion? Click here.




ElementValue
Catalog44036
NameARIANE 5 R/B
Epoch Orbit38
Epoch Day53.26256674
Epoch Year2019
RAAN269.6919
Inclination2.9799
Eccentricity0.7279394
Argument of Perigee191.0282
Mean Anonmoly132.4883
Mean Motion2.28368162
Decay Rate7.801E-05
L11 44036U 19007C 19053.26256674 .00007801 00000-0 21768-2 0 9992
L22 44036 2.9799 269.6919 7279394 191.0282 132.4883 2.28368162 389

Live tracking and technical data element details for ARIANE 5 R/B (NORAD 44036). ARIANE 5 R/B can be tracked NOW for your location showing map with azimuth and elevation plus other details from your city location.

Track the satellite on the map from your city or location and see movement details for azimuth, elevation, latitude, longitude, range, height, and movement on the map or in text.







IsCatalogInMostPopularTable: catalog: 44036, numindb: 8
Update: records affected: 1



GetName: 44036 ARIANE 5 R/B

Hit Count: updated at: Sat, 23 Feb 2019 16:48:22 GMT